Location: Newark
(46.9000°N, 28.3500°E)
Time: 23:25:58
(UTC+00:00)

Vanguard 1 Rocket - Pass Details

Date: 01 September 2019
Orbit: 651 x 4225 km, 34.3° (Epoch: 19 September)

Event Time Altitude Azimuth Distance (km) Brightness Sun altitude
Rises 23:34:07 0° 246° (WSW) 3,335 - -31.7°
Reaches altitude 10° 23:37:26 10° 227° (SW) 2,166 - -31.4°
Maximum altitude 23:40:34 18° 184° (S) 1,602 - -31.2°
Drops below altitude 10° 23:43:35 10° 140° (SE) 2,066 - -30.9°
Sets 23:46:38 0° 120° (ESE) 3,115 - -30.7°
